Georgetown, DE

3:13 PM EST on February 13, 2016 (GMT -0500)
Sussex County

Weather History for KGED - November, 2013

Change the Weather History Date:

Wednesday, November 13, 2013

  Actual Average Record
Temperature  
Mean Temperature 35 °F 49 °F  
Max Temperature 43 °F 59 °F 76 °F (1955)
Min Temperature 26 °F 39 °F 21 °F (1996)
Degree Days  
Heating Degree Days 30 16  
Month to date heating degree days 201 182  
Since 1 July heating degree days 444 468  
Cooling Degree Days 0 0  
Month to date cooling degree days 5 0  
Year to date cooling degree days 1396 1194  
Moisture  
Dew Point 16 °F    
Average Humidity 52    
Maximum Humidity 75    
Minimum Humidity 29    
Precipitation  
Precipitation T in 0.10 in 2.77 in (1975)
Month to date precipitation 0.24 1.51  
Year to date precipitation 47.65 38.63  
Sea Level Pressure  
Sea Level Pressure 30.41 in    
Wind  
Wind Speed 6 mph (NW)    
Max Wind Speed 17 mph    
Max Gust Speed 26 mph    
Visibility 10 miles    
Events Snow    
T = Trace of Precipitation, MM = Missing Value Source: NWS Daily Summary

Daily Weather History Graph

Daily Weather History Graph

Search for Another Location

Airport or City:

Trip Planner

Search our weather history database for the weather conditions in past years. The results will help you decide how hot, cold, wet, or windy it might be!

Date:

Astronomy

Nov. 13, 2013 Rise Set
Actual Time 6:41 AM EST 4:49 PM EST
Civil Twilight 6:13 AM EST 5:17 PM EST
Nautical Twilight 5:41 AM EST 5:49 PM EST
Astronomical Twilight 5:09 AM EST 6:21 PM EST
Moon 2:33 PM EST 2:34 AM EST
Length of Visible Light 11h 04m
Length of Day
10h 07m
Waxing Gibbous, 84% of the Moon is Illuminated
Nov 13
Waxing Gibbous
Nov 17
Full
Nov 25
Last Quarter
Dec 2
New
Dec 9
First Quarter

Hourly Weather History & Observations

Time (EST) Temp. Windchill Dew Point Humidity Pressure Visibility Wind Dir Wind Speed Gust Speed Precip Events Conditions
12:54 AM 32.0 °F 28.7 °F 12.9 °F 45% 30.37 in 10.0 mi NW 3.5 mph - 0.00 in Snow Light Snow
1:54 AM 30.9 °F 27.5 °F 14.0 °F 50% 30.37 in 10.0 mi Variable 3.5 mph - 0.00 in   Clear
2:54 AM 30.9 °F 27.5 °F 15.1 °F 52% 30.37 in 10.0 mi NW 3.5 mph - 0.00 in   Clear
3:54 AM 30.9 °F 25.2 °F 15.1 °F 52% 30.37 in 10.0 mi NW 5.8 mph - 0.00 in   Clear
4:54 AM 30.9 °F 27.5 °F 15.1 °F 52% 30.38 in 10.0 mi NNW 3.5 mph - 0.00 in   Clear
5:54 AM 30.0 °F 26.5 °F 16.0 °F 56% 30.39 in 10.0 mi Variable 3.5 mph - N/A   Clear
6:54 AM 28.9 °F 25.2 °F 16.0 °F 58% 30.42 in 10.0 mi NW 3.5 mph - 0.00 in   Clear
7:54 AM 32.0 °F 27.5 °F 16.0 °F 52% 30.44 in 10.0 mi NNW 4.6 mph - 0.00 in   Partly Cloudy
8:54 AM 34.0 °F 24.6 °F 14.0 °F 44% 30.44 in 10.0 mi North 13.8 mph 21.9 mph N/A   Partly Cloudy
9:54 AM 36.0 °F 27.5 °F 14.0 °F 41% 30.45 in 10.0 mi North 12.7 mph 21.9 mph N/A   Clear
10:54 AM 37.9 °F 28.5 °F 14.0 °F 38% 30.44 in 10.0 mi North 17.3 mph 21.9 mph 0.00 in   Clear
11:54 AM 39.0 °F 32.3 °F 10.9 °F 32% 30.41 in 10.0 mi NW 10.4 mph 19.6 mph 0.00 in   Clear
12:54 PM 39.9 °F 32.1 °F 10.0 °F 29% 30.40 in 10.0 mi NW 13.8 mph 24.2 mph N/A   Clear
1:54 PM 42.1 °F 35.7 °F 12.0 °F 29% 30.40 in 10.0 mi NW 11.5 mph 18.4 mph N/A   Clear
2:54 PM 43.0 °F 36.8 °F 12.9 °F 30% 30.39 in 10.0 mi NW 11.5 mph 18.4 mph N/A   Clear
3:54 PM 42.1 °F 37.7 °F 15.1 °F 34% 30.40 in 10.0 mi NW 6.9 mph - N/A   Clear
4:54 PM 39.9 °F 37.8 °F 17.1 °F 40% 30.41 in 10.0 mi NW 3.5 mph - N/A   Clear
5:54 PM 37.9 °F - 18.0 °F 45% 30.43 in 10.0 mi Calm Calm - N/A   Clear
6:54 PM 36.0 °F - 19.0 °F 50% 30.43 in 10.0 mi Calm Calm - 0.00 in   Clear
7:54 PM 33.1 °F - 19.9 °F 59% 30.43 in 10.0 mi Calm Calm - N/A   Clear
8:54 PM 28.0 °F 24.2 °F 21.0 °F 75% 30.43 in 7.0 mi SSW 3.5 mph - N/A   Clear
9:54 PM 28.0 °F - 19.9 °F 72% 30.42 in 10.0 mi Calm Calm - N/A   Clear
10:54 PM 30.0 °F 26.5 °F 19.9 °F 66% 30.42 in 10.0 mi SW 3.5 mph - N/A   Clear
11:54 PM 32.0 °F 28.7 °F 21.0 °F 64% 30.41 in 10.0 mi WSW 3.5 mph - 0.00 in Snow Light Snow